Location: Cistella
(42.2691°N, 2.8486°E)
Time: 11:56:45
(UTC+00:00)

Daily predictions for brighter satellites

Satellite Brightness Start Highest point End
(mag) Time Altitude Azimuth Time Altitude Azimuth Time Altitude Azimuth
Cosmos 1833 Rocket 3.5 17:21:06 10° N 17:25:59 29° NE 17:30:51 10° ESE
H-2A R/B 3.2 17:23:40 10° ESE 17:27:21 21° ENE 17:31:07 10° NNE
Meteor 1-21 Rocket 4.2 17:22:26 10° S 17:27:55 75° E 17:33:31 10° NNE
Lacrosse 5 3.7 17:23:30 10° WNW 17:28:05 35° SW 17:32:39 10° S
NOSS 2-1 (D) 3.3 17:24:56 10° SW 17:28:16 60° NW 17:31:39 10° NNE
Cosmos 1939 Rocket 3.1 17:25:23 10° SSE 17:29:20 49° ENE 17:33:14 10° N
Cosmos 44 4.0 17:27:29 10° SW 17:32:10 54° NW 17:37:12 10° NNE
Cosmos 1602 Rocket 3.7 17:27:59 10° S 17:32:12 52° E 17:36:28 10° NNE
H-2A R/B 2.3 17:28:09 10° N 17:32:31 76° WNW 17:36:46 10° SSW
Cosmos 2026 Rocket 4.3 17:27:40 10° SSE 17:33:24 43° E 17:39:14 10° NNE
USA 229 DEB 4.1 17:26:42 10° NNW 17:33:53 55° NE 17:41:23 10° SE
USA 229 4.1 17:26:49 10° NNW 17:33:59 54° NE 17:41:30 10° SE
Feng Yun 1-1 Rocket 4.4 17:29:25 10° SE 17:34:41 50° ENE 17:40:06 10° N
CZ-3B R/B 2.8 17:32:20 10° NNW 17:34:54 33° NE 17:41:25 10° ESE
SJ 16-02 2.9 17:31:13 10° SW 17:35:17 36° WNW 17:39:22 10° N
SeaSat 1 4.4 17:31:58 10° N 17:36:03 26° NW 17:40:05 10° WSW
CSL-04 DEB 4.4 17:33:06 10° NNE 17:37:10 61° ESE 17:41:06 10° S
FengYun 1-2 T 4.4 17:31:50 10° SSE 17:37:26 84° WSW 17:43:06 10° NNW
Cosmos 990 Rocket 4.1 17:33:26 10° SSW 17:38:39 82° WNW 17:43:51 10° NNE
YAOGAN 1 3.7 17:35:28 10° ESE 17:38:49 22° ENE 17:42:10 10° NNE
Cosmos 2112 Rocket 3.9 17:33:43 10° NNW 17:38:58 76° ENE 17:44:08 10° SSE
Cosmos 1844 Rocket 4.1 17:35:17 10° SW 17:40:30 37° WNW 17:45:45 10° N
H-2A R/B 3.8 17:36:44 10° S 17:40:42 46° W 17:44:51 10° NNW
Cosmos 1689 Rocket 3.7 17:41:34 12° ENE 17:42:58 15° E 17:44:44 10° SE
Aureole 3 Rocket 3.3 17:40:59 10° NNE 17:44:07 34° E 17:47:57 10° SSE
COSMOS 2406 3.5 17:39:57 10° NNW 17:45:32 47° ENE 17:51:03 10° SE
Cosmos 2082 Rocket 3.2 17:41:04 10° N 17:45:42 24° NE 17:50:16 10° ESE
Cosmos 1703 3.2 17:42:20 10° S 17:46:13 90° NW 17:50:07 10° N
Cosmos 1825 Rocket 4.4 17:43:31 10° SSE 17:47:19 30° E 17:51:09 10° NNE
IRS-1C Rocket 4.3 17:43:11 10° SE 17:48:11 47° ENE 17:53:14 10° N
X-37B 0.8 17:45:57 10° WNW 17:49:06 58° N 17:51:36 15° E
NOSS 3-1 (A) 4.2 17:42:09 10° NNW 17:49:37 60° NE 17:58:13 10° SE
ISS -1.6 17:49:26 10° NW 17:51:42 17° N 17:53:50 11° NE
Cosmos 1812 Rocket 3.5 17:49:02 10° N 17:53:25 69° E 17:57:43 10° SSE
Okean O Rocket 2.7 17:49:45 10° S 17:54:04 51° W 17:58:22 10° NNW
CZ-4 R/B 1.8 17:54:36 10° SE 17:58:21 38° ENE 18:02:03 10° N
Iridium 4 Rocket 3.5 17:56:33 10° N 18:01:49 59° E 18:06:34 10° SSE
CSL-04 Rocket 4.5 17:58:15 10° ESE 18:02:52 29° ENE 18:07:33 10° N
ERS-2 2.3 17:59:51 10° NNE 18:03:23 46° E 18:06:53 10° S
SKYMED 2 3.6 17:59:04 10° NNE 18:03:25 89° NW 18:07:46 10° SSW
Okean-O 2.9 18:01:39 10° SE 18:05:50 43° ENE 18:10:03 10° N
Cosmos 1428 Rocket 4.5 18:02:39 10° S 18:08:56 81° E 18:15:17 10° N
Cosmos 1340 3.4 18:06:07 10° SSW 18:09:47 54° WNW 18:13:29 10° N
Cosmos 1346 Rocket 2.8 18:06:27 10° S 18:10:16 53° E 18:14:07 10° NNE
Cosmos 2278 Rocket 2.1 18:04:53 10° SSW 18:10:32 75° ESE 18:16:13 10° NNE
Cosmos 1953 Rocket 4.0 18:09:46 10° SSE 18:13:45 37° E 18:17:45 10° NNE
CZ-2C R/B 3.2 18:08:48 10° SSE 18:14:15 90° W 18:20:01 10° NNW
Cosmos 2292 Rocket 4.1 18:13:55 10° SSE 18:18:31 36° E 18:20:40 21° NE
Cosmos 1892 4.3 18:15:50 10° SE 18:17:22 18° ESE 18:17:22 18° ESE
Cosmos 44 Rocket 3.7 18:16:10 10° S 18:20:46 44° ESE 18:23:19 24° ENE
SAR-Lupe-4 3.5 18:17:51 10° NNE 18:21:20 63° ESE 18:24:52 10° S
Cosmos 405 3.3 18:20:04 10° NNW 18:23:35 66° W 18:27:02 10° S
ARGOS 3.3 18:22:43 10° SE 18:27:52 50° ENE 18:33:04 10° N
Meteor 2-19 Rocket 4.4 18:23:39 10° S 18:29:50 89° WNW 18:36:01 10° N
DMSP B5D1-3 4.5 18:25:08 10° NNE 18:30:11 60° E 18:35:13 10° S
Cosmos 372 Rocket 4.0 18:29:00 10° SSW 18:34:12 83° WNW 18:39:29 10° NNE
PSLV R/B 4.0 18:30:29 10° NNE 18:34:43 82° WNW 18:38:54 10° SSW
SAR-Lupe-1 4.1 18:34:05 12° N 18:37:23 79° WNW 18:40:58 10° SSW
CZ-4B R/B 3.8 18:35:30 10° NNW 18:38:09 23° WNW 18:40:44 10° WSW
CZ-2C R/B 3.0 18:34:30 10° NNE 18:39:53 46° E 18:45:15 10° S
Cosmos 2150 Rocket 3.9 18:38:24 10° S 18:43:26 59° ESE 18:45:58 29° NE
MOS 1 Rocket 4.5 18:42:09 10° N 18:46:07 38° WNW 18:50:09 10° SW
Cosmos 1048 Rocket 4.0 18:42:57 10° N 18:48:01 53° ENE 18:49:37 38° ESE
Cosmos-2242 3.7 18:44:03 10° NNW 18:48:16 56° W 18:52:29 10° S
Cosmos 2297 4.0 18:45:56 10° S 18:51:11 41° ESE 18:51:23 41° E
USA 290 4.1 18:53:45 10° NW 18:56:36 31° WSW 18:59:27 10° SSW
SL-08 RB Rocket 3.5 18:59:19 66° E 18:59:35 68° ENE 19:04:02 10° N
USA 276 4.0 18:57:20 10° SW 18:58:53 24° SSW 18:58:53 24° SSW
CSL-04 Debris 4.1 18:56:18 10° SSE 19:01:42 85° WSW 19:07:07 10° NNW
Helios 1A Rocket 3.5 19:00:34 10° S 19:04:38 57° W 19:08:44 10° NNW
H-2A R/B 2.8 19:01:27 10° S 19:06:21 52° W 19:11:25 10° NNW
Cosmos 1125 Rocket 3.3 19:02:54 10° S 19:08:05 73° ESE 19:08:41 65° ENE
Cosmos 1809 Rocket 4.3 19:02:23 10° S 19:08:30 84° E 19:14:41 10° N
Cosmos 1833 Rocket 3.8 19:04:45 10° NW 19:10:02 43° WSW 19:15:17 10° S
Cosmos 2298 Rocket 4.2 19:05:27 10° SSW 19:10:45 73° WNW 19:13:35 28° N
Cosmos 2266 Rocket 3.8 19:06:26 10° S 19:12:40 81° E 19:18:49 10° N
YAOGAN 1 4.2 19:10:47 10° SSW 19:14:42 34° W 19:18:40 10° NNW
USA 267 4.4 19:19:53 26° SSE 19:19:53 26° SSE 19:23:33 10° S
In-Cosmos 22 Rocket 4.5 19:16:41 10° SSW 19:22:27 70° WNW 19:28:08 10° N
X-37B 3.3 19:22:41 10° W 19:23:55 20° W 19:23:55 20° W
Cosmos 1943 Rocket 3.7 19:21:14 10° S 19:23:17 23° S 19:23:17 23° S
ISS -0.7 19:26:35 10° NW 19:26:49 11° NW 19:26:49 11° NW
Cosmos 2082 Rocket 2.8 19:24:33 10° NNW 19:30:08 56° WSW 19:33:41 22° S
CZ-4 R/B 4.3 19:30:55 10° SW 19:33:30 16° W 19:36:05 10° NW
Cosmos 2315 Rocket 4.2 19:41:27 10° N 19:46:33 62° NNW 19:46:33 62° NNW
USA 234 4.4 19:53:13 30° N 19:53:13 30° N 19:57:56 10° NW
ATLAS 5 CENTAUR R/B 4.3 20:18:28 10° SW 20:39:15 68° SW 20:39:15 68° SW
